Theta_e
279 280 280 281 281 282 283 283 283 284 283 283 283 283 283 284 284 284 284 284 284 284 283 283 283 283 283 283 283 283 283 282 282 282 282 282 282 282 282 283 283 283 284 284 284 285 285 283 281 282 282 282 281 281 281 281 281 280 279 279 279 279 279
278 278 279 279 280 281 281 282 282 283 283 283 283 283 283 283 283 283 283 283 283 283 283 283 283 283 283 283 282 282 282 282 282 282 282 282 282 282 282 282 282 282 283 283 283 283 283 282 281 281 281 281 281 280 280 281 281 280 279 279 279 279 279
276 277 277 278 279 279 280 280 281 281 282 282 283 283 283 283 283 283 283 283 283 283 283 283 283 283 283 282 282 282 282 282 282 282 282 281 281 281 281 281 281 282 282 282 283 283 283 282 280 280 281 280 281 280 280 280 280 280 279 278 278 279 279
275 275 276 277 277 278 278 279 279 279 280 281 281 282 282 283 283 282 282 282 282 283 283 283 282 282 283 282 282 282 282 282 281 281 281 281 281 281 281 281 281 281 281 281 282 282 283 282 281 280 280 280 279 280 279 279 279 279 278 278 278 278 278
274 274 275 276 276 276 277 277 277 278 278 279 279 280 281 281 282 282 282 282 282 282 282 282 282 282 282 282 282 282 282 281 281 281 281 281 281 281 281 281 280 280 280 281 281 281 281 282 281 280 279 279 278 278 278 278 278 278 278 278 277 277 278
273 273 274 274 275 275 275 276 276 276 277 277 278 279 279 280 280 281 281 282 282 282 282 282 282 282 282 282 282 282 282 281 281 281 281 281 281 281 280 280 280 280 280 280 280 280 280 281 281 280 279 279 278 278 278 277 277 277 277 277 277 277 277
272 272 273 273 273 274 274 274 275 275 276 276 277 278 278 279 280 280 281 281 281 281 281 281 282 281 281 281 281 281 281 281 281 281 281 281 281 280 280 280 280 279 279 279 279 279 279 280 280 279 279 278 278 277 278 277 277 277 276 276 276 276 276
271 271 271 272 272 272 272 273 273 274 274 275 276 277 278 279 279 280 280 280 280 280 280 280 281 281 281 281 281 281 281 281 281 281 281 281 281 280 280 280 280 279 279 279 278 279 279 279 279 279 279 278 277 276 277 277 277 277 277 276 275 275 275
270 270 270 270 270 271 271 271 272 273 274 275 276 277 278 278 278 279 279 279 279 279 280 280 280 280 280 280 280 280 280 280 281 281 281 281 280 280 280 280 279 279 279 279 278 278 279 279 279 279 279 278 277 276 276 277 276 276 276 276 275 274 274
269 269 269 269 269 270 270 270 271 272 274 275 276 277 277 277 277 277 278 278 278 278 278 278 279 279 279 279 279 279 280 280 280 280 280 280 280 280 280 280 279 279 279 278 278 278 279 279 279 279 279 278 277 276 276 276 275 275 275 275 274 274 274
267 268 268 268 268 269 269 270 270 271 273 274 275 276 276 276 275 275 275 275 275 275 276 276 276 277 277 277 278 278 278 279 279 279 279 280 280 280 280 279 279 279 279 278 278 278 279 279 279 279 279 279 277 276 276 275 275 275 275 274 273 273 273
266 266 267 267 267 268 268 269 269 270 272 273 274 275 275 274 273 273 273 273 273 273 273 273 274 274 274 275 275 276 276 277 277 278 278 279 279 279 279 279 279 279 279 278 278 278 278 279 278 279 279 279 277 276 275 275 274 274 274 274 274 274 273
265 265 266 266 266 267 267 268 268 269 271 272 273 274 274 272 272 272 271 271 271 271 271 271 272 272 272 273 273 273 274 274 275 276 276 277 278 278 279 279 279 279 279 279 278 278 278 278 278 278 279 278 277 276 275 274 274 274 274 274 274 274 274
265 265 265 265 265 266 266 266 267 268 270 271 272 273 273 271 271 271 270 270 270 270 270 270 271 271 271 272 271 272 272 273 273 274 275 276 276 277 277 278 278 279 279 279 279 278 278 278 278 278 278 278 277 277 276 275 274 274 273 273 274 274 274
264 264 264 264 265 265 266 266 266 267 270 271 271 272 272 270 270 270 269 269 269 269 270 270 270 270 270 270 270 270 271 272 273 274 275 275 276 276 276 276 277 278 278 278 279 278 278 278 278 278 278 278 277 277 276 275 275 275 274 273 273 274 273
264 264 264 264 265 265 265 265 266 267 269 270 270 271 270 270 270 269 269 268 269 269 269 269 268 268 268 268 268 268 270 272 273 274 274 275 275 275 276 276 276 277 277 278 278 278 278 278 278 278 277 277 277 276 276 275 275 275 274 273 273 273 273
263 263 263 264 265 265 265 265 265 266 268 269 269 269 269 269 269 269 268 268 269 269 268 268 267 267 267 267 267 268 269 271 272 272 273 273 274 275 275 275 276 276 276 276 277 277 278 278 278 278 278 278 277 277 276 275 274 273 273 273 272 272 273
263 263 263 264 264 264 264 264 264 265 266 267 268 268 268 268 268 268 268 268 268 268 267 267 267 267 267 267 267 268 269 270 271 271 272 272 273 274 274 274 275 275 275 275 275 276 276 276 277 277 278 278 278 277 276 275 274 273 273 273 273 273 273
263 263 263 263 263 263 263 263 263 264 265 266 267 268 268 268 267 267 268 268 267 267 267 266 266 266 266 266 267 268 269 270 271 271 271 271 272 272 272 272 272 272 273 274 275 275 275 275 275 275 276 277 277 277 276 275 275 274 273 272 272 273 273
263 263 263 263 263 263 263 263 263 263 264 265 266 267 267 267 267 267 268 267 266 266 266 266 265 265 265 265 266 268 269 270 270 270 269 269 270 271 270 269 269 270 270 271 273 274 274 274 274 274 275 275 276 276 276 276 275 274 274 273 272 273 273
263 263 263 263 262 262 262 262 262 262 262 263 264 266 266 266 267 267 267 266 265 265 265 264 264 264 264 264 266 267 268 268 268 268 267 267 268 268 268 267 267 268 268 269 271 273 274 274 274 274 274 275 275 275 276 276 275 274 274 273 273 272 272
263 263 262 262 262 262 261 261 261 261 261 262 263 264 266 266 266 266 265 264 264 263 263 263 263 263 263 263 264 265 266 266 266 265 265 265 266 266 265 265 266 267 268 268 269 271 272 273 274 274 274 274 274 275 275 275 275 274 273 274 273 273 273
263 262 262 262 262 262 261 261 261 260 261 261 262 263 265 266 265 263 263 262 262 262 261 261 261 261 262 262 263 263 264 264 263 263 263 263 263 263 263 264 265 266 266 267 268 269 270 271 273 273 273 274 274 274 274 275 274 274 273 273 273 273 273
262 263 262 262 262 262 261 261 260 260 260 261 262 263 264 264 263 262 261 261 260 260 259 259 259 260 261 261 261 261 261 261 261 261 261 261 261 261 262 262 263 264 265 266 267 268 269 270 271 272 272 273 273 273 273 273 274 274 274 273 273 273 273
263 263 262 262 261 261 261 260 260 260 260 260 261 262 263 262 261 260 260 259 258 258 257 257 258 258 258 258 258 258 259 258 258 258 259 259 259 260 260 260 261 262 263 264 265 266 267 268 269 270 270 271 271 272 272 272 272 273 273 273 272 272 272
262 262 262 261 261 260 260 260 260 259 259 260 261 261 261 261 260 259 258 258 257 256 256 256 256 256 256 256 256 257 257 257 257 257 257 257 258 258 258 259 259 260 261 262 262 263 264 265 266 267 268 269 270 270 270 270 271 271 271 271 271 271 271
262 262 261 261 260 260 260 259 259 259 259 260 261 260 260 260 258 257 257 256 256 255 255 255 255 255 255 255 255 255 256 255 256 256 256 256 256 256 257 257 257 258 259 259 260 260 261 262 263 264 265 267 268 269 269 269 270 270 270 270 270 270 270
261 261 260 259 259 259 259 259 258 258 258 260 260 259 259 259 257 255 255 255 254 254 254 254 254 254 254 254 254 255 255 254 254 255 254 254 255 255 256 256 256 257 257 257 257 258 259 260 261 262 263 265 266 267 268 269 269 269 269 269 269 269 269
261 260 259 258 258 258 258 258 257 257 259 260 260 258 259 258 256 254 253 253 253 253 253 253 253 253 253 253 253 253 254 253 253 254 253 253 254 254 254 255 255 255 255 256 256 257 258 259 259 260 261 262 264 265 266 268 268 268 268 268 268 268 269
260 259 258 258 258 258 257 256 256 257 259 260 259 257 258 257 255 253 252 252 252 252 252 252 253 252 252 252 252 252 253 253 252 253 253 253 253 253 253 253 254 254 254 254 255 256 257 257 258 259 260 260 261 262 263 265 266 267 268 268 267 267 268
259 258 257 257 257 257 256 255 255 257 258 259 257 256 256 256 255 253 251 251 251 252 252 251 252 251 251 251 251 251 252 252 252 252 252 252 252 252 252 252 252 252 253 253 254 255 255 255 256 257 257 258 259 260 261 262 263 265 267 267 267 267 267
256 256 256 256 256 256 256 255 255 256 257 257 256 254 253 254 253 252 251 251 251 251 251 251 251 251 250 250 250 250 250 251 251 251 251 251 252 252 252 251 251 251 252 253 253 253 254 254 255 255 255 256 257 258 259 260 261 263 264 266 266 267 266
254 254 254 255 255 255 254 254 254 254 255 255 254 253 252 252 251 250 250 250 250 250 250 250 250 250 249 249 249 249 249 250 250 250 250 251 251 251 251 251 251 251 252 252 252 252 253 253 253 253 254 254 255 256 257 258 259 261 262 263 265 265 266
253 253 253 252 252 252 252 252 252 253 253 252 252 251 251 251 250 250 249 249 249 249 249 249 249 249 249 248 248 248 249 249 249 249 249 250 250 250 251 250 251 251 251 251 251 252 252 252 252 252 253 253 254 254 255 256 257 258 260 261 263 264 265
251 251 251 251 251 251 251 251 251 251 252 251 250 250 250 250 250 249 249 249 249 249 249 248 248 248 248 248 248 248 248 248 248 248 248 249 249 249 250 250 250 251 251 250 251 251 251 251 251 252 252 252 253 253 254 255 256 256 257 259 260 262 263
251 251 251 250 250 250 250 250 250 250 251 251 250 249 249 249 249 249 249 249 249 248 248 248 248 248 247 247 247 247 247 247 247 247 248 248 248 248 249 249 250 250 250 250 250 250 250 250 251 251 251 252 252 252 253 254 254 255 256 256 258 259 261
Wind_Speed
13 13 12 12 11 11 11 11 12 13 14 16 18 18 19 20 21 22 24 23 24 23 22 24 26 27 27 25 25 26 24 24 24 24 26 26 25 26 26 26 25 19 18 20 21 22 21 18 20 23 26 30 31 33 36 37 39 39 37 34 33 36 43
13 13 13 12 11 10 10 10 10 11 12 14 16 17 18 19 20 22 23 23 23 24 22 23 26 28 27 24 26 29 27 25 24 23 25 26 25 26 26 25 26 23 19 20 21 21 22 20 19 21 23 27 30 31 33 36 37 37 37 34 31 33 38
13 13 12 12 11 11 10 10 10 10 10 11 13 15 17 18 19 21 22 23 23 23 23 23 25 28 27 23 25 31 32 29 26 25 26 26 26 27 27 26 26 25 22 21 21 21 22 21 20 22 23 25 30 32 32 34 37 37 37 35 32 31 33
13 13 12 12 11 11 11 11 11 11 11 11 12 13 15 16 18 20 20 22 23 22 23 23 25 28 27 24 27 33 34 29 26 26 26 26 26 28 28 27 26 27 26 23 22 23 24 22 20 22 23 22 26 30 31 33 34 35 35 33 31 29 30
15 14 13 12 12 12 12 11 11 12 11 12 12 12 13 13 15 17 19 20 22 22 23 23 25 27 24 24 29 33 32 29 28 28 28 27 27 27 28 26 25 27 27 25 23 22 23 23 21 20 21 21 23 25 26 28 31 32 30 29 28 29 28
14 14 13 13 13 13 13 13 12 12 12 12 12 12 12 12 12 14 16 18 19 20 22 23 25 26 24 24 28 31 31 31 30 31 31 31 31 28 27 26 26 27 26 25 26 25 23 23 23 20 19 20 23 23 22 22 24 26 25 24 25 25 26
12 11 11 12 12 12 12 13 13 13 12 13 13 13 13 13 13 13 13 14 15 16 18 20 22 24 25 26 27 29 30 30 29 30 31 33 33 31 30 29 30 30 28 27 28 28 25 24 24 23 20 20 21 22 23 23 21 20 20 21 23 24 27
11 11 11 11 11 11 12 12 12 11 11 13 14 14 14 14 14 14 14 14 14 14 14 16 17 20 22 24 26 28 30 30 29 29 30 32 32 31 30 29 30 30 27 25 25 25 25 24 24 23 21 20 19 21 24 24 22 20 20 22 25 26 28
11 11 11 11 12 12 12 12 10 9 11 14 15 14 13 14 14 14 15 15 14 14 13 14 14 16 17 19 22 25 27 29 30 29 30 31 30 29 29 29 29 28 23 20 20 21 23 23 23 24 22 21 22 23 23 22 21 20 20 23 27 30 33
11 10 10 10 12 12 12 12 9 9 12 14 14 13 13 12 11 11 11 11 12 12 12 13 14 14 15 16 18 19 22 25 28 28 30 32 31 30 29 28 29 28 23 20 20 21 22 22 23 27 27 24 24 23 21 21 22 20 19 21 23 26 33
12 11 9 9 12 12 12 12 10 11 14 15 13 13 11 9 10 11 10 10 12 12 12 12 13 13 14 14 15 16 18 19 21 24 26 30 32 32 32 30 29 28 26 24 23 24 25 24 25 28 30 27 23 22 22 22 22 21 21 20 16 14 21
13 12 11 11 12 12 12 12 11 12 15 15 15 14 10 9 12 11 9 11 13 13 13 12 13 13 13 13 13 14 15 16 17 19 21 23 27 30 33 34 32 30 28 26 26 26 25 25 27 28 30 29 24 21 22 22 22 26 28 23 18 15 16
13 13 12 12 13 13 13 13 11 13 16 16 16 15 10 10 13 11 10 13 14 13 14 13 13 14 14 14 16 16 15 16 17 18 18 20 21 24 28 31 34 35 34 31 30 28 27 29 29 27 29 31 28 25 24 23 23 29 28 22 21 24 22
13 13 12 11 12 12 13 12 12 14 16 15 16 16 10 11 14 13 12 13 13 13 13 12 13 14 14 15 17 17 17 18 19 19 19 19 20 21 23 25 28 32 35 36 35 33 35 37 35 31 32 32 30 30 31 29 27 29 29 27 31 36 30
12 13 12 10 10 10 11 12 12 14 16 15 16 15 11 11 13 11 10 12 11 11 10 10 12 13 13 15 16 17 17 19 20 20 19 19 20 20 21 22 24 27 30 35 38 37 39 41 40 38 38 35 31 31 34 35 36 35 32 32 33 31 27
11 11 10 9 9 9 11 12 11 13 16 16 16 16 13 11 10 9 10 12 10 8 7 8 12 14 15 16 17 17 18 19 20 20 19 19 19 19 19 20 21 23 25 28 33 37 38 40 42 40 38 36 34 32 34 34 33 32 29 25 21 19 22
9 9 8 8 8 9 11 12 12 13 16 16 16 16 14 11 10 9 11 11 8 7 7 9 12 15 16 16 18 19 19 19 20 21 20 19 19 19 19 20 20 21 23 24 27 31 33 36 40 40 38 37 34 34 36 32 27 28 27 21 14 15 21
8 7 6 6 7 9 11 12 13 14 16 17 17 16 14 12 10 10 12 10 7 7 10 11 13 15 15 16 18 19 20 20 19 20 20 20 20 20 18 18 18 18 21 23 24 26 28 29 32 33 35 38 36 35 36 35 33 33 28 20 16 18 20
7 6 4 5 7 9 11 14 15 16 17 18 17 16 15 12 10 11 11 8 6 10 12 12 13 13 14 17 19 20 20 19 18 18 18 17 16 16 15 16 18 18 18 19 21 24 26 27 28 28 28 31 33 34 36 39 41 39 32 25 21 22 20
7 7 4 5 8 10 13 16 18 18 17 17 17 17 15 12 10 12 10 5 5 10 11 12 13 13 15 19 21 21 20 19 19 19 16 14 15 15 15 18 20 21 21 19 18 20 23 25 27 27 25 24 26 28 32 38 42 42 40 37 29 23 21
8 7 4 5 8 11 14 17 18 18 17 17 17 17 15 13 12 12 8 5 7 10 10 11 12 13 16 20 21 20 20 19 21 21 17 15 17 18 19 21 22 21 21 20 18 18 19 20 20 19 18 18 19 21 26 33 39 42 44 45 37 26 21
8 7 4 5 6 9 14 16 15 17 18 17 17 17 16 14 11 9 8 8 9 10 9 11 13 14 17 21 22 21 21 21 22 21 18 18 20 21 22 22 20 17 18 17 16 16 16 16 17 16 15 15 15 16 20 25 32 39 43 46 45 38 31
9 6 3 4 5 7 11 12 10 14 18 16 15 16 15 12 11 11 11 11 10 9 10 12 15 17 20 22 22 22 22 21 20 19 19 20 22 24 24 21 16 14 15 15 15 15 15 15 15 16 15 15 14 14 16 21 27 34 41 43 44 44 42
8 6 3 5 7 8 11 11 8 12 16 15 14 14 12 11 12 12 13 11 9 10 12 15 17 20 21 22 21 21 20 19 18 18 18 20 22 23 22 18 14 13 13 13 13 14 14 14 14 14 15 16 14 12 13 18 23 29 36 42 44 43 42
8 7 5 6 8 9 11 10 8 11 14 14 13 11 10 11 11 11 13 13 10 12 16 18 19 19 19 18 18 17 16 16 16 16 17 18 19 19 17 15 13 13 12 12 12 12 13 14 14 14 14 15 14 13 12 13 18 22 27 37 42 42 41
8 6 5 6 7 9 10 9 8 11 13 14 12 9 9 11 10 10 15 15 12 15 18 18 16 15 15 15 15 13 13 13 14 15 16 17 16 15 14 13 13 13 12 11 11 12 12 14 14 15 16 16 14 13 12 11 14 17 19 26 32 31 30
8 6 5 7 8 8 9 8 8 11 14 15 11 9 9 11 9 11 15 15 13 16 17 15 14 13 13 13 13 12 12 13 14 14 15 16 15 14 13 13 13 13 12 11 12 13 13 14 15 16 17 16 15 14 12 11 12 15 15 18 22 20 16
7 5 5 6 8 9 8 7 8 11 15 15 12 11 11 11 9 10 12 12 12 14 14 12 11 11 11 12 12 12 12 13 14 14 15 16 15 14 14 14 14 13 12 12 13 14 14 14 14 14 15 15 16 16 15 12 11 12 13 14 16 15 12
7 5 4 5 6 7 7 7 8 11 15 14 12 12 13 12 11 11 11 10 11 11 10 10 10 11 12 13 13 13 13 14 14 14 14 15 15 15 15 15 15 14 14 15 15 14 14 14 14 14 14 14 15 16 16 14 13 13 12 11 12 13 14
6 5 5 4 4 5 5 5 7 11 13 12 11 12 13 11 11 12 12 11 10 9 9 9 9 11 12 12 12 13 13 14 14 14 14 15 15 15 15 15 15 15 16 15 15 14 14 14 14 14 14 14 14 15 16 16 16 14 12 12 12 12 14
6 6 5 4 3 3 4 5 7 10 11 11 11 13 12 11 11 12 12 11 9 8 8 9 9 10 11 11 11 12 12 13 13 14 14 14 14 14 14 15 15 16 17 16 14 14 14 14 14 14 14 14 15 16 16 17 18 16 14 14 14 14 15
6 6 6 6 5 4 4 6 8 9 10 10 11 12 11 9 10 11 11 10 9 8 8 9 8 9 10 10 10 10 11 11 12 12 13 14 14 14 14 15 16 16 15 15 15 15 14 14 14 14 14 15 15 16 16 16 16 16 15 15 14 14 14
5 4 4 6 7 7 7 7 8 9 10 10 11 12 10 8 8 10 11 11 10 8 7 7 7 8 9 9 10 10 10 11 11 11 11 12 12 13 13 14 15 15 14 14 14 14 14 14 14 14 15 15 14 15 15 15 15 16 15 15 15 14 14
5 4 4 4 5 7 7 8 8 9 9 9 9 10 9 7 6 8 11 12 10 8 7 7 7 8 8 8 8 9 9 10 10 10 10 10 11 12 12 13 14 13 13 14 14 14 13 14 14 14 14 15 14 14 15 15 15 15 15 15 15 14 14
4 4 3 4 4 5 7 8 8 8 7 8 8 9 9 7 6 7 8 9 9 8 7 7 7 7 7 7 7 8 8 9 9 10 11 11 11 11 11 12 13 13 13 14 14 14 13 14 14 14 14 14 14 14 14 14 14 15 15 16 16 15 14
3 3 3 3 4 5 6 7 7 7 6 6 8 10 10 8 7 6 7 7 7 7 7 7 7 7 7 7 7 7 8 7 8 10 12 13 13 12 12 11 11 12 12 12 13 13 14 13 13 14 14 14 14 13 13 14 14 15 15 15 16 17 15
Wind_Direction
339 337 333 330 326 321 312 299 289 278 270 265 261 258 255 253 249 246 247 248 246 243 240 239 240 241 241 238 236 237 236 234 234 233 233 233 233 234 233 232 234 241 256 254 243 246 249 235 222 226 230 233 235 236 239 242 242 241 237 230 225 231 237
336 334 331 329 323 321 318 309 302 291 279 272 267 263 260 256 252 250 251 250 249 246 243 241 242 245 244 238 237 239 238 236 234 232 233 232 230 234 233 230 232 237 249 256 247 241 245 238 221 222 230 232 232 234 237 239 239 238 235 230 224 225 233
333 331 330 327 324 323 321 317 313 305 295 286 277 270 265 259 255 254 253 252 251 249 245 243 245 248 248 240 239 244 244 241 237 234 234 232 231 234 235 231 231 235 242 251 251 243 241 238 229 230 231 231 234 236 236 238 238 236 234 230 225 223 227
334 334 333 330 328 328 325 323 320 314 306 298 290 282 275 269 263 259 257 255 254 251 249 246 247 251 251 243 244 249 249 244 237 233 233 233 233 234 236 235 232 233 238 246 252 249 243 241 241 237 229 223 230 234 234 236 236 234 232 229 225 223 223
337 337 336 333 331 329 327 324 320 315 310 303 298 291 284 280 274 268 265 262 259 256 255 251 251 254 252 244 246 250 249 245 240 237 236 237 237 235 235 235 231 231 235 240 246 249 247 245 246 242 230 219 220 224 227 231 233 231 229 227 225 224 224
337 336 334 331 330 328 325 323 319 316 315 310 307 303 297 291 285 279 274 271 267 264 261 258 257 258 254 247 249 251 250 248 246 244 242 242 243 240 236 235 232 230 231 232 238 245 247 245 243 240 233 223 218 217 218 220 225 227 224 219 219 220 221
334 333 333 329 328 328 324 323 323 320 319 319 318 315 310 304 297 291 286 282 278 274 270 266 264 263 260 255 254 254 253 253 250 246 245 245 245 244 241 239 236 234 232 232 237 242 243 243 242 240 236 230 223 219 219 216 213 215 215 214 215 215 218
334 333 334 333 332 332 329 328 328 326 328 329 323 316 309 305 301 297 295 293 291 288 284 279 274 271 268 263 261 258 257 256 253 250 249 247 247 245 243 241 239 236 233 233 235 237 239 241 241 240 236 228 219 215 218 218 213 211 211 212 216 218 221
336 335 337 338 338 339 340 339 335 334 340 332 319 311 305 300 297 296 295 295 297 298 296 293 289 283 279 274 270 266 264 262 259 256 253 251 249 246 244 242 240 236 230 227 228 231 234 236 237 238 234 222 214 214 217 215 212 215 214 214 219 223 226
340 340 337 338 342 343 345 345 340 337 338 330 319 314 310 303 302 306 310 313 315 315 313 310 305 301 297 293 286 279 274 270 266 262 257 255 252 248 243 240 237 233 227 223 226 228 230 233 235 236 235 228 218 216 216 210 207 211 213 213 219 226 228
344 344 340 338 341 343 343 343 339 336 334 330 327 325 320 322 330 332 333 334 331 327 325 321 316 314 313 310 307 302 293 285 278 273 266 261 257 252 247 242 236 231 226 224 227 231 230 232 233 234 237 236 226 215 213 211 208 207 207 206 208 218 226
344 345 343 338 336 338 340 338 334 335 335 331 329 329 330 339 344 345 345 340 334 333 332 330 326 324 323 322 324 322 315 307 298 290 281 273 266 260 255 249 242 236 230 226 228 231 229 229 233 236 236 232 223 211 210 212 210 210 211 207 205 211 216
343 343 343 339 335 335 337 335 334 337 338 334 330 329 335 348 348 347 344 338 335 334 334 334 333 331 330 329 329 329 326 322 316 309 300 290 281 271 263 257 250 245 240 234 230 228 227 229 232 235 235 231 227 221 216 210 211 215 214 206 209 217 215
340 343 344 339 334 333 337 341 344 344 341 338 335 332 337 351 347 339 334 335 335 334 334 337 339 336 334 333 331 329 330 328 323 318 309 299 289 280 274 268 261 254 249 243 238 233 234 238 237 235 237 239 236 231 224 217 214 216 215 213 221 226 222
337 342 346 344 336 337 347 353 355 352 347 345 342 337 340 350 346 337 333 334 334 333 334 341 346 342 336 333 330 326 327 327 321 316 309 299 290 282 278 274 267 262 257 252 248 243 241 244 244 240 243 246 242 235 231 228 227 226 223 222 227 229 223
335 343 348 350 346 350 359 2 2 358 352 349 348 344 341 340 338 335 334 332 329 333 339 347 349 342 333 329 327 323 321 320 315 314 312 306 298 287 280 274 269 266 264 259 255 252 248 247 246 244 244 244 240 236 234 231 229 227 221 218 222 223 220
338 348 353 357 1 6 5 3 2 359 354 350 350 349 344 336 332 331 330 329 330 339 340 340 341 338 333 329 327 325 322 317 314 315 315 312 308 300 289 281 274 271 270 268 264 261 258 255 253 250 247 243 238 234 230 223 214 212 209 206 209 219 220
343 355 0 10 22 21 8 359 357 357 355 351 350 351 347 338 332 328 325 324 330 336 330 329 333 335 335 333 329 327 324 321 318 314 310 308 309 307 302 298 294 288 281 277 273 272 271 268 264 260 255 249 243 234 225 218 213 210 203 198 206 217 219
348 3 17 34 34 24 5 355 353 356 355 351 352 353 348 341 334 327 323 324 332 329 324 327 332 334 337 337 332 329 327 324 323 321 317 317 318 317 323 327 324 320 310 294 281 275 277 277 275 273 268 260 253 240 226 220 220 216 203 195 205 213 213
356 14 34 41 29 16 3 355 353 355 355 352 351 351 348 345 334 323 322 336 346 332 327 332 335 333 339 340 335 332 329 327 332 339 342 343 335 330 335 335 325 322 324 318 301 283 277 277 277 276 272 267 261 250 234 223 221 218 211 206 205 206 209
360 15 28 21 14 6 1 358 352 352 355 351 347 349 348 342 331 325 334 7 359 343 338 339 336 334 338 339 335 333 331 329 335 344 346 341 333 330 330 327 320 316 317 319 315 300 282 272 270 270 266 260 257 254 244 230 221 217 217 216 212 205 208
358 8 9 356 357 354 356 357 352 352 355 352 347 347 346 342 344 357 14 16 2 351 345 339 335 332 333 332 330 329 329 328 333 337 337 333 331 330 328 324 319 316 312 310 311 308 296 280 268 262 258 253 247 246 246 239 226 218 218 221 221 217 216
352 353 346 341 344 346 349 352 351 353 356 355 349 345 344 354 13 21 15 9 3 353 343 337 332 327 325 325 323 323 324 326 329 332 331 329 324 323 326 328 325 318 312 306 303 302 299 293 282 270 260 254 248 242 237 239 237 228 221 222 224 224 225
338 333 329 341 343 343 344 344 344 350 358 3 358 349 348 4 16 11 2 3 3 349 339 334 328 324 323 324 323 324 324 323 325 327 327 326 321 321 328 335 333 326 317 308 301 295 291 290 290 286 278 266 260 256 241 236 240 238 229 225 225 226 228
335 327 324 337 340 337 339 341 340 345 354 360 359 355 355 358 0 356 352 354 352 341 335 331 327 326 327 329 330 332 332 331 330 330 329 330 329 331 338 343 341 336 329 317 308 302 295 291 290 290 292 287 277 268 260 246 241 241 234 227 226 227 228
333 322 319 332 336 333 335 340 344 348 347 345 349 2 2 353 349 346 345 345 341 336 334 334 335 335 336 338 341 343 345 345 343 342 342 344 346 348 351 351 347 342 336 328 322 316 309 304 301 299 300 301 292 274 266 260 248 243 237 226 222 223 226
330 322 323 331 334 334 337 341 350 353 345 339 351 15 7 352 353 352 348 347 343 339 339 340 343 345 346 349 351 353 354 355 354 353 353 355 355 355 353 351 348 343 336 333 330 324 316 312 310 308 303 297 290 279 270 264 252 245 240 229 221 220 220
326 336 340 337 337 337 338 345 353 348 337 337 0 21 5 356 9 9 359 355 348 343 346 349 349 353 358 358 359 0 0 360 359 359 358 357 355 353 352 350 349 347 343 340 335 326 322 321 317 313 307 297 289 284 276 266 252 243 239 229 221 219 216
330 354 358 347 343 342 343 346 348 341 334 340 6 19 6 5 21 21 6 360 354 352 357 1 2 6 7 4 3 4 2 1 359 357 356 357 355 353 353 352 352 350 345 341 337 330 326 328 324 318 315 307 298 294 289 278 262 247 235 224 218 219 222
358 15 16 1 353 0 6 353 337 337 341 349 8 14 8 10 21 20 10 2 3 9 15 15 13 14 11 8 7 4 1 359 358 355 353 355 355 354 355 354 352 350 345 339 336 335 333 331 328 324 321 317 311 309 308 303 289 267 242 224 217 219 224
21 27 36 34 9 5 17 8 351 348 353 1 9 10 9 12 18 18 13 9 15 28 29 21 17 16 13 9 6 5 1 357 355 353 350 350 351 352 354 353 351 348 345 341 340 339 337 333 330 328 325 323 320 315 313 312 307 291 265 245 232 223 222
33 36 47 47 36 32 27 15 6 359 0 8 12 8 8 16 20 15 13 19 33 41 33 22 16 10 7 4 1 359 357 353 352 351 347 346 346 347 349 350 347 343 341 342 343 341 339 337 336 333 329 324 322 320 315 310 308 300 284 270 255 235 223
31 45 63 53 41 40 34 21 15 11 10 14 17 14 15 24 26 22 24 33 42 41 29 22 16 8 3 359 355 352 350 349 349 346 343 342 341 339 340 342 340 338 340 343 342 339 339 338 337 336 333 328 324 323 320 314 309 304 295 285 274 257 240
20 39 72 64 44 36 29 23 23 22 17 15 15 15 20 30 35 33 34 39 42 37 25 18 13 7 2 356 352 350 347 346 345 342 340 340 336 333 335 336 335 338 343 344 341 338 337 337 336 334 332 331 328 324 321 317 312 309 305 296 288 279 263
20 31 54 56 45 37 29 26 28 26 25 22 14 11 18 31 37 31 28 31 33 28 20 13 5 0 356 350 348 346 343 342 342 340 340 339 335 332 332 332 332 335 340 341 339 338 336 335 334 332 329 327 326 324 321 319 315 313 312 308 301 293 281
22 34 41 35 30 30 28 25 24 23 25 23 13 12 21 33 33 20 14 17 17 13 9 3 356 351 347 342 341 341 339 335 335 338 341 341 340 337 335 332 329 331 336 337 335 334 336 336 332 331 330 326 322 320 318 318 318 315 313 311 309 303 296